Regional Weather Roundup
Issued by NWS Mt. Holly, NJ

Home | Current Version | Previous Version | Text Only | Print | Product List | Glossary On
Versions: 1 2 3 4 5 6 7 8 9 10 11 12 13 14 15 16 17 18 19 20 21 22 23 24 25 26 27
000
ASUS41 KPHI 240412
RWRPHI

REGIONAL WEATHER ROUNDUP
NATIONAL WEATHER SERVICE MOUNT HOLLY NJ
1200 AM EDT WED AUG 24 2016

NOTE:  "FAIR" INDICATES FEW OR NO CLOUDS BELOW 12,000 FEET WITH NO
SIGNIFICANT WEATHER AND/OR OBSTRUCTIONS TO VISIBILITY.

 * = STATION DOES NOT REPORT PRECIPITATION (E.G. RAIN, SNOW, ETC.)
        OR FOG.

NJZ015>026-240500-
SOUTHERN NEW JERSEY

CITY           SKY/WX    TMP DP  RH WIND       PRES   REMARKS
POMONA         CLEAR     68  59  73 CALM      30.30R
WILDWOOD*      CLEAR     66  62  87 CALM      30.30S
MILLVILLE      CLEAR     61  60  97 CALM      30.30S
WRIGHTSTOWN    CLEAR     63  58  83 SW6       30.26S
MOUNT HOLLY    CLEAR     62  58  86 CALM      30.29
TRENTON        CLEAR     67  59  75 CALM      30.28S

$$
NJZ001>014-240500-
NORTHERN NEW JERSEY

CITY           SKY/WX    TMP DP  RH WIND       PRES   REMARKS
SUSSEX         CLEAR     59  59 100 CALM      30.29R
ANDOVER*         N/A     58  57  97 CALM      30.30R
MORRISTOWN     CLEAR     59  57  94 CALM      30.28R
NEWARK         CLEAR     71  58  63 SW8       30.27S
TETERBORO      CLEAR     71  56  58 CALM      30.26R
CALDWELL         N/A     66  58  75 CALM      30.28S
SOMERVILLE     CLEAR     62  59  90 CALM      30.27R
ALLAIRE*       CLEAR     66  57  72 S5        30.30S
TOMS RIVER*    PTCLDY    58  55  90 CALM      30.30S

$$
PAZ043-044-047-054-055-060>062-066>071-240500-
EASTERN PENNSYLVANIA

CITY           SKY/WX    TMP DP  RH WIND       PRES   REMARKS
PHILADELPHIA   PTCLDY    73  60  63 SW8       30.30R
NORTH PHILA    CLEAR     68  57  68 CALM      30.30S
BLUE BELL*     CLEAR     59  57  94 CALM      30.29R
DOYLESTOWN     CLEAR     65  59  81 CALM      30.29R
QUAKERTOWN*    CLEAR     59  57  94 CALM      30.31R
POTTSTOWN      CLEAR     62  59  90 CALM      30.31R
LANCASTER      CLEAR     65  62  90 CALM      30.30R
COATESVILLE    CLEAR     68  57  68 CALM      30.32S
READING        CLEAR     67  59  75 CALM      30.29R
ALLENTOWN      CLEAR     62  58  86 N3        30.29R
MOUNT POCONO   CLEAR     54  52  93 NW6       30.34R
WILKES BARRE   CLEAR     63  56  78 E7        30.30R

$$
DEZALL-MDZ008-012-015-019-020-240500-
DELAWARE AND EASTERN MARYLAND

CITY           SKY/WX    TMP DP  RH WIND       PRES   REMARKS
WILMINGTON     CLEAR     69  58  67 W3        30.30S
DOVER          CLEAR     66  63  89 S6        30.29S
GEORGETOWN     CLEAR     63  59  87 CALM      30.31S
EASTON         CLEAR     69  63  80 S3        30.34S
PATUXENT       CLEAR     69  60  73 S6        30.29S
OCEAN CITY     CLEAR     62  59  90 CALM      30.31R
WALLOPS ISLAND CLEAR     66  60  81 CALM      30.31S
CAMBRIDGE      CLEAR     63  59  88 CALM      30.30F
SALISBURY      CLEAR     62  59  90 CALM      30.30S

$$
PAZ001-021-NYZ056-072-MDZ011-DCZ001-240500-
OTHER NEARBY LOCATIONS

CITY           SKY/WX    TMP DP  RH WIND       PRES   REMARKS
HARRISBURG     PTCLDY    69  62  78 E5        30.28R
STATE COLLEGE  PTCLDY    64  58  82 CALM      30.31R
WILLIAMSPORT   CLEAR     65  59  81 NW3       30.28R
BINGHAMTON     CLEAR     65  54  67 SW7       30.30R
NEW YORK CITY  CLEAR     72  58  61 CALM      30.30R
BALTIMORE      CLEAR     65  60  84 CALM      30.29S
WASHINGTON DC  CLEAR     72  61  68 SW5       30.30S

$$




USA.gov is the U.S. government's official web portal to all federal, state and local government web resources and services.